[[{"header":{"parameterUnit":"m.s-1","parameterCategory":1,"la1":30.2991,"la2":30.254,"lo1":-89.0895,"lo2":-89.0444,"dy":0.0017,"dx":0.0017,"nx":28,"ny":28,"refTime":"2024-08-22T03:00:00:Z","depth":0,"parameterNumber":2,"parameterNumberName":"U-component_of_WINDS"},"data":[0,0,0,0,0,0,0,0,0,0,0,0,0,0,0,0,0,0,0,0,0,0,0,0,0,0,0,0,0,0,0,0,0,0,0,0,0,0,0,0,0,0,0,0,0,0,0,0,0,0,0,0,0,0,0,0,0,0,0.2526,0.2527,0,0.2616,0.2617,0.2618,0.2651,0.2651,0.265,0.265,0.2743,0.2746,0.2748,0,0,0,0,0,0,0,0,0,0,0,0,0,0.2383,0.2386,0.2526,0.2527,0.2529,0.2616,0.2617,0.2618,0.2651,0.265,0.265,0.265,0.2742,0.2745,0.2749,0,0,0,0,0,0,0,0,0,0,0,0,0,0.2456,0.2386,0.2526,0.2555,0.2559,0.2616,0.2617,0.2619,0.2651,0.265,0.265,0.265,0.2741,0.2745,0.2749,0.2784,0,0,0.2762,0.2764,0,0,0,0,0,0,0,0,0.2452,0.2461,0.255,0.2553,0.2557,0.2622,0.2601,0.2674,0.2651,0.2616,0.265,0.2649,0.2703,0.271,0.2728,0.2788,0.2792,0.2762,0.2765,0.2766,0.2768,0,0,0,0,0,0,0,0.2447,0.2458,0.2562,0.2551,0.2556,0.2564,0.2574,0.2615,0.2661,0.2619,0.2622,0.2632,0.2705,0.2724,0.2731,0.2794,0.2762,0.2766,0.2768,0.277,0.2885,0.2885,0,0,0,0,0,0,0.2437,0.2453,0.2559,0.2565,0.2502,0.2567,0.2578,0.2602,0.2661,0.2669,0.2632,0.2633,0.2717,0.2726,0.2734,0.2777,0.2766,0.277,0.2773,0.2884,0.2885,0.2885,0,0,0,0,0,0,0.2434,0.2446,0.2555,0.251,0.2524,0.257,0.2596,0.2604,0.2623,0.267,0.2679,0.2643,0.2717,0.2728,0.2771,0.2781,0.2772,0.2776,0.2883,0.2884,0.2885,0.2865,0,0,0,0,0,0,0.243,0.2445,0.2459,0.251,0.2526,0.2591,0.2597,0.2606,0.263,0.2632,0.2683,0.2691,0.2718,0.2764,0.2775,0.2787,0.2779,0.2883,0.2884,0.2885,0.2865,0.2865,0.2865,0,0,0,0,0,0.2424,0.245,0.2459,0.2472,0.2545,0.2591,0.2601,0.2631,0.263,0.2644,0.2675,0.2689,0.2778,0.2768,0.278,0.2794,0.2882,0.2883,0.2885,0.2865,0.2865,0.2865,0,0,0,0,0,0,0.24,0.2457,0.2468,0.2511,0.2546,0.2597,0.2615,0.263,0.2666,0.2666,0.2702,0.2713,0.2753,0.2778,0.2766,0.283,0.2831,0.2835,0.2812,0.2813,0.2813,0.2806,0.2783,0,0,0,0,0,0.2399,0.2432,0.2481,0.2514,0.2531,0.257,0.2591,0.2611,0.2649,0.2664,0.2697,0.2733,0.2769,0.2792,0.2828,0.2869,0.288,0.2884,0.2884,0.2884,0.2886,0.2908,0.291,0.289,0.289,0.289,0,0,0.2399,0.2434,0.2453,0.251,0.2539,0.2572,0.2582,0.2617,0.2642,0.2669,0.2711,0.2737,0.2779,0.282,0.284,0.2842,0.2895,0.2885,0.2885,0.2888,0.291,0.2912,0.2914,0.289,0.289,0.289,0,0,0.2415,0.2445,0.2476,0.2504,0.2548,0.2574,0.2581,0.2629,0.2647,0.2689,0.271,0.274,0.2801,0.283,0.2853,0.2877,0.2892,0.2888,0.2889,0.291,0.2911,0.2913,0.2921,0.2924,0.2891,0.2891,0.2891,0,0.2409,0.2459,0.249,0.2523,0.2547,0.2572,0.2602,0.2629,0.2682,0.2698,0.2699,0.2776,0.2806,0.2854,0.286,0.2878,0.2886,0.2883,0.2909,0.2911,0.2913,0.2921,0.2924,0.289,0.289,0.289,0.289,0,0.2449,0.2484,0.2503,0.2553,0.2579,0.261,0.2645,0.2668,0.2685,0.271,0.2752,0.2789,0.2832,0.2845,0.2862,0.2895,0.2894,0.2902,0.2904,0.2913,0.2921,0.2925,0.2889,0.2889,0.2889,0.2889,0,0,0.2453,0.2518,0.2525,0.2547,0.2596,0.2623,0.2656,0.2697,0.2715,0.2751,0.2778,0.2829,0.2835,0.2861,0.2882,0.29,0.2916,0.2905,0.2906,0.2905,0.2952,0.2946,0.295,0.2925,0.2926,0.2927,0.2949,0,0.2475,0.2534,0.2561,0.2608,0.2639,0.2663,0.2691,0.2724,0.2748,0.2778,0.2805,0.2839,0.2846,0.2861,0.288,0.291,0.2926,0.2908,0.2951,0.2952,0.294,0.2954,0.2948,0.2968,0.2952,0.2953,0.2953,0,0.2509,0.2543,0.2593,0.2637,0.2651,0.2676,0.2715,0.2744,0.2781,0.2797,0.2825,0.2844,0.2878,0.2878,0.2925,0.2913,0.2931,0.2948,0.295,0.2955,0.2953,0.2959,0.2975,0.2977,0.2959,0.2958,0.2958,0,0.2506,0.2565,0.2601,0.262,0.2672,0.2689,0.2712,0.2748,0.2771,0.2805,0.282,0.2858,0.2879,0.2908,0.2937,0.2933,0.2981,0.2983,0.2995,0.2994,0.3004,0.3003,0.3022,0.3016,0.3016,0.3016,0.3016,0,0.2528,0.2557,0.2601,0.2623,0.2656,0.2687,0.2719,0.2743,0.2775,0.2803,0.2825,0.2851,0.2887,0.2917,0.294,0.2975,0.2985,0.2998,0.3004,0.2996,0.2994,0.3009,0.3009,0.3017,0.3017,0.3017,0.3017,0,0.253,0.2561,0.2602,0.2648,0.266,0.2682,0.2721,0.2744,0.2768,0.2802,0.2812,0.2851,0.2887,0.2918,0.2966,0.2981,0.3017,0.3024,0.3004,0.3007,0.3018,0.3016,0.3047,0.3052,0.3043,0.3043,0.3043,0,0.2542,0.2564,0.2612,0.2632,0.2654,0.2685,0.2708,0.2739,0.2762,0.2805,0.2822,0.2859,0.2891,0.2947,0.298,0.3016,0.3024,0.3032,0.303,0.3021,0.3024,0.3022,0.3024,0.3032,0.3032,0.3032,0.3032,0,0.2559,0.2572,0.2604,0.2641,0.2667,0.2698,0.2729,0.2744,0.278,0.2804,0.2841,0.2865,0.2913,0.295,0.2989,0.3013,0.3028,0.3032,0.3037,0.3029,0.3017,0.3023,0.3004,0.3032,0.3032,0.3032,0.3032,0.3032,0.2566,0.2587,0.2623,0.2657,0.2684,0.2712,0.2735,0.2762,0.2793,0.2834,0.285,0.2887,0.2923,0.2977,0.3,0.3029,0.3032,0.3039,0.3041,0.3042,0.304,0.3012,0.3037,0.3037,0.3037,0.3037,0.3037,0,0.2584,0.2608,0.2639,0.2681,0.2708,0.2719,0.2754,0.2776,0.2808,0.284,0.287,0.2911,0.2946,0.2981,0.3017,0.3034,0.3042,0.3043,0.3042,0.3047,0.3036,0.3028,0.3036,0.3036,0.3036,0.3036,0.3036,0.3036,0.2596,0.2631,0.2649,0.2697,0.2722,0.2758,0.2776,0.2802,0.2827,0.2872,0.2902,0.2923,0.2956,0.2995,0.3028,0.3037,0.3049,0.3048,0.3059,0.3048,0.3048,0.3048,0.304,0.305,0.305,0.3067,0.3067,0.3067]},{"header":{"parameterUnit":"m.s-1","parameterCategory":1,"la1":30.2991,"la2":30.254,"lo1":-89.0895,"lo2":-89.0444,"dy":0.0017,"dx":0.0017,"nx":28,"ny":28,"refTime":"2024-08-22T03:00:00:Z","depth":0,"parameterNumber":3,"parameterNumberName":"V-component_of_WINDS"},"data":[0,0,0,0,0,0,0,0,0,0,0,0,0,0,0,0,0,0,0,0,0,0,0,0,0,0,0,0,0,0,0,0,0,0,0,0,0,0,0,0,0,0,0,0,0,0,0,0,0,0,0,0,0,0,0,0,0,0,1.1445,1.1445,0,1.1398,1.1397,1.1397,1.1341,1.134,1.1339,1.1338,1.1291,1.1291,1.129,0,0,0,0,0,0,0,0,0,0,0,0,0,1.1488,1.1488,1.1445,1.1445,1.1444,1.1398,1.1397,1.1397,1.1341,1.134,1.1339,1.1338,1.1291,1.1291,1.129,0,0,0,0,0,0,0,0,0,0,0,0,0,1.1458,1.1488,1.1446,1.1411,1.1407,1.1398,1.1397,1.1396,1.1341,1.134,1.1339,1.1337,1.1291,1.1291,1.129,1.1312,0,0,1.1288,1.1288,0,0,0,0,0,0,0,0,1.146,1.1457,1.1416,1.1413,1.1409,1.1374,1.1395,1.1368,1.1341,1.1366,1.1338,1.1337,1.132,1.1317,1.1311,1.131,1.1307,1.1288,1.1288,1.1287,1.1287,0,0,0,0,0,0,0,1.1462,1.1459,1.1427,1.1416,1.1411,1.1398,1.1392,1.139,1.1351,1.1364,1.136,1.1355,1.1318,1.1311,1.1309,1.1307,1.1288,1.1287,1.1287,1.1287,1.1319,1.132,0,0,0,0,0,0,1.1469,1.1461,1.1428,1.1425,1.1432,1.1398,1.1392,1.1387,1.1351,1.1344,1.1356,1.1352,1.1313,1.131,1.1307,1.1328,1.1287,1.1287,1.1286,1.1318,1.1319,1.132,0,0,0,0,0,0,1.1471,1.1467,1.143,1.1442,1.1436,1.1399,1.1393,1.1386,1.138,1.1345,1.1338,1.1357,1.1312,1.1308,1.131,1.1326,1.1286,1.1286,1.1316,1.1318,1.132,1.1372,0,0,0,0,0,0,1.1472,1.1468,1.1476,1.1442,1.1436,1.1434,1.1394,1.1386,1.1379,1.1374,1.1344,1.1337,1.1311,1.1312,1.131,1.1324,1.1285,1.1314,1.1317,1.1319,1.1369,1.1376,1.1382,0,0,0,0,0,1.1474,1.1493,1.1476,1.1473,1.1444,1.1435,1.1431,1.14,1.138,1.1388,1.1365,1.1338,1.1325,1.1312,1.131,1.1325,1.1313,1.1316,1.1319,1.1366,1.1374,1.1381,0,0,0,0,0,0,1.153,1.1488,1.1469,1.1478,1.146,1.1426,1.1434,1.141,1.1398,1.1394,1.1355,1.1349,1.1356,1.134,1.1327,1.1342,1.1315,1.1318,1.1352,1.136,1.1366,1.1369,1.1285,0,0,0,0,0,1.1544,1.1539,1.1503,1.1514,1.1506,1.1472,1.1467,1.1444,1.1424,1.1417,1.1394,1.1376,1.1368,1.1363,1.1353,1.1367,1.1359,1.1376,1.1382,1.1387,1.1389,1.1393,1.14,1.133,1.133,1.133,0,0,1.1571,1.1548,1.1548,1.1525,1.1509,1.1505,1.1466,1.1464,1.146,1.1417,1.1416,1.1399,1.1377,1.1384,1.1386,1.1372,1.1407,1.1391,1.1395,1.1395,1.1397,1.1404,1.141,1.1332,1.1331,1.1331,0,0,1.162,1.1602,1.1609,1.1593,1.1568,1.1545,1.1546,1.1515,1.1501,1.1501,1.1467,1.1463,1.1449,1.1434,1.1425,1.1466,1.144,1.1464,1.1496,1.1501,1.1506,1.1511,1.1524,1.1529,1.1466,1.1467,1.1467,0,1.1657,1.165,1.1615,1.1615,1.1605,1.1564,1.157,1.1557,1.1531,1.1525,1.1509,1.149,1.1473,1.1475,1.1485,1.1479,1.1479,1.1467,1.1508,1.1513,1.1516,1.1528,1.1534,1.1469,1.1469,1.1469,1.1469,0,1.1697,1.1692,1.17,1.1675,1.1666,1.1669,1.1635,1.1631,1.1609,1.1587,1.1586,1.1563,1.1547,1.1546,1.1525,1.1545,1.1537,1.1515,1.1487,1.1527,1.1537,1.1542,1.1474,1.1473,1.1472,1.1471,0,0,1.1779,1.1733,1.1737,1.1724,1.1693,1.1689,1.169,1.1673,1.167,1.1653,1.1652,1.1641,1.162,1.161,1.1586,1.159,1.1622,1.1568,1.1567,1.1577,1.1641,1.1656,1.1662,1.1606,1.1606,1.1607,1.1642,0,1.1821,1.1818,1.1787,1.1794,1.1788,1.1749,1.1749,1.173,1.171,1.1702,1.168,1.1672,1.1646,1.1639,1.1641,1.1618,1.1634,1.1615,1.1603,1.1603,1.1609,1.1668,1.1685,1.1719,1.1646,1.1647,1.1647,0,1.1869,1.1853,1.1859,1.1827,1.1823,1.1824,1.1806,1.1799,1.1777,1.1761,1.1749,1.1722,1.172,1.1694,1.169,1.1677,1.1671,1.1658,1.1659,1.1656,1.1627,1.1665,1.1729,1.1734,1.1654,1.1653,1.1653,0,1.1926,1.1907,1.1908,1.1898,1.1861,1.1862,1.1847,1.1823,1.1814,1.1798,1.1792,1.1777,1.1769,1.1757,1.1726,1.1711,1.1725,1.1697,1.1712,1.1713,1.1716,1.1716,1.1779,1.1714,1.1714,1.1714,1.1714,0,1.1975,1.198,1.1933,1.1933,1.1937,1.1901,1.1906,1.1886,1.1865,1.1861,1.1827,1.1823,1.1784,1.1776,1.1752,1.1751,1.1748,1.1735,1.1728,1.1737,1.1739,1.1732,1.1728,1.1715,1.1715,1.1715,1.1715,0,1.204,1.2008,1.2006,1.197,1.1961,1.1966,1.1935,1.1933,1.1911,1.1905,1.1902,1.1867,1.1855,1.1824,1.1805,1.1789,1.1794,1.1783,1.1801,1.1797,1.1813,1.1811,1.1872,1.1878,1.1811,1.1812,1.1813,0,1.2072,1.2075,1.2039,1.2033,1.2018,1.201,1.2001,1.1965,1.1957,1.1931,1.1932,1.1918,1.1904,1.1888,1.186,1.1845,1.1832,1.1855,1.183,1.1838,1.1831,1.183,1.183,1.186,1.1861,1.1862,1.1862,0,1.2133,1.2117,1.2105,1.2087,1.2077,1.2061,1.2044,1.2041,1.2001,1.1994,1.1981,1.1971,1.195,1.1936,1.1916,1.19,1.1874,1.187,1.1872,1.1881,1.1891,1.1884,1.1815,1.1869,1.1868,1.1868,1.1867,1.1867,1.2181,1.2181,1.2155,1.2142,1.2125,1.2109,1.2105,1.2082,1.2071,1.2051,1.2031,1.202,1.1996,1.1966,1.1952,1.1943,1.1929,1.1933,1.1934,1.1935,1.1938,1.1894,1.1939,1.1939,1.1939,1.1939,1.1938,0,1.2238,1.2219,1.2208,1.2184,1.2174,1.215,1.2129,1.2122,1.2113,1.2093,1.208,1.2065,1.205,1.2021,1.2004,1.2002,1.199,1.1999,1.1998,1.1994,1.1952,1.1951,1.2009,1.2009,1.2009,1.2009,1.2009,1.2009,1.2267,1.2264,1.2245,1.2234,1.2215,1.2203,1.2193,1.2178,1.2162,1.2146,1.2134,1.2115,1.209,1.2071,1.2057,1.2048,1.2043,1.2056,1.2044,1.2004,1.1998,1.1991,1.199,1.2055,1.2055,1.2086,1.2086,1.2087]}]]